Location: Abundant Grace Fellowship
(35.0349°N, 90.0924°W)
Time: 20:28:34
(UTC+00:00)

NOSS 3-1 (C) - Pass Details

Date: 18 January 2026
Orbit: 618 x 1583 km, 63.4° (Epoch: 10 January)

Event Time Altitude Azimuth Distance (km) Brightness Sun altitude
Rises 01:09:18 0° 335° (NNW) 3,856 6.8 -23.3°
Reaches altitude 10° 01:11:56 10° 343° (NNW) 3,035 6.1 -23.8°
Maximum altitude 01:18:59 42° 53° (NE) 1,801 4.4 -25.3°
Enters shadow 01:19:07 42° 55° (NE) 1,806 4.4 -25.3°
